Wind_Speed
39 38 37 42 40 34 36 36 39 39 40 39 40 44 45 47 50 53 56 57 60 62 64 67 69 72 74 75 77 79 75 67 66 64 65 64 62 62 62 61 61 60 62
41 41 39 43 39 37 36 39 39 40 40 40 40 43 45 50 53 56 58 59 63 63 68 73 77 79 81 79 75 71 69 66 62 62 62 65 67 65 57 59 61 60 59
40 40 40 37 37 34 34 35 38 39 39 40 43 47 48 52 55 57 57 58 63 70 76 81 81 78 75 75 75 73 69 68 66 63 62 64 65 65 61 58 58 59 57
43 41 37 32 31 33 34 35 38 41 44 41 43 45 47 52 60 58 58 65 73 78 81 78 77 77 78 77 76 74 71 70 68 68 63 58 55 54 64 63 59 57 59
34 35 35 35 33 35 36 37 40 39 39 41 47 53 54 55 58 64 72 77 79 77 77 78 77 77 74 73 74 73 69 66 64 63 63 62 61 61 60 66 71 68 65
29 33 37 36 39 38 37 36 38 44 44 47 52 55 54 55 65 73 76 77 75 77 76 77 75 74 74 74 72 69 66 63 64 65 65 66 67 70 70 69 70 73 76
32 32 35 39 40 42 40 39 46 45 49 52 51 55 64 66 71 72 74 73 73 74 77 78 78 77 76 71 67 64 64 66 68 70 72 74 76 78 78 78 79 80 81
33 33 37 37 36 39 42 43 46 45 46 52 61 65 68 72 68 68 69 69 70 72 73 74 75 74 72 68 66 66 67 70 72 74 76 77 79 82 86 88 91 92 93
36 34 36 34 38 40 41 43 46 46 53 60 63 67 67 67 66 65 68 71 71 72 73 72 72 72 71 70 70 69 72 75 79 82 85 88 90 93 95 97 99 100 100
39 36 35 35 33 36 43 45 51 57 59 59 61 64 64 62 63 66 67 70 73 74 74 72 71 71 71 72 74 77 81 86 88 88 89 92 94 96 98 100 102 105 106
40 40 41 42 43 44 47 49 52 53 52 58 60 59 58 62 66 66 69 74 76 75 75 72 72 72 72 74 77 82 84 87 88 90 93 95 98 101 105 106 108 110 113
41 44 46 45 45 46 49 48 47 51 56 57 53 52 57 63 65 67 72 76 77 75 74 73 73 73 76 79 82 83 84 87 92 97 99 104 107 108 106 108 108 110 111
37 42 43 41 44 46 44 45 51 54 50 48 49 53 60 62 64 67 73 76 76 75 76 76 76 76 78 80 83 86 90 95 100 103 107 109 107 108 108 108 107 104 101
35 37 40 40 42 41 46 49 47 46 45 46 49 55 60 61 66 71 75 78 77 78 79 79 79 80 80 85 89 92 97 102 106 110 111 111 109 111 108 102 95 90 85
31 33 37 37 42 44 44 42 44 43 44 47 52 58 63 65 70 75 78 79 81 83 83 83 82 82 84 90 93 98 104 109 111 113 113 113 112 105 96 89 83 77 73
29 32 35 37 38 40 42 44 43 45 47 51 55 60 66 70 74 79 83 83 84 85 87 86 85 84 89 93 99 104 110 112 115 116 114 112 104 95 86 79 71 66 62
28 30 32 35 38 41 43 42 44 46 49 54 59 63 69 73 77 82 85 86 86 89 90 89 88 88 93 99 104 109 112 116 117 114 112 105 94 86 78 70 64 60 57
28 30 32 35 38 40 40 41 45 47 51 57 63 66 71 74 78 84 87 89 89 93 94 90 91 92 96 102 107 112 117 118 116 113 107 95 85 77 70 64 61 57 53
30 32 35 37 40 41 40 43 46 49 53 59 63 68 73 76 81 86 89 92 93 96 95 93 92 94 99 104 111 116 120 118 114 108 98 87 77 68 63 61 58 53 50
33 36 38 42 42 42 42 46 48 52 56 62 68 71 73 79 84 88 92 95 96 97 95 93 94 96 103 107 111 117 117 112 109 100 88 78 69 63 60 57 54 51 46
35 39 42 44 44 43 45 47 51 55 60 65 68 72 76 81 87 90 95 96 99 98 95 94 95 101 106 112 116 115 113 110 104 93 82 72 64 59 57 53 50 48 46
39 42 44 46 45 46 48 51 55 59 62 66 70 74 80 86 90 93 98 99 100 98 94 95 98 104 111 115 116 116 110 107 97 86 76 67 60 57 54 50 47 46 45
40 43 45 47 47 49 50 53 57 60 63 68 73 78 84 89 93 97 101 102 99 93 93 98 101 107 113 117 118 113 110 102 90 79 70 62 58 55 50 48 46 43 41
42 43 46 47 49 51 53 55 58 61 65 71 75 81 86 91 96 100 103 100 94 93 95 99 104 110 114 117 118 113 109 96 85 74 64 58 55 52 48 46 43 41 39
46 46 47 49 51 52 54 56 60 63 69 74 78 84 88 95 101 100 102 98 94 93 96 101 103 112 115 117 116 113 107 93 82 73 63 56 53 48 44 41 40 38 36
47 49 49 51 53 55 56 59 62 67 72 76 81 84 89 95 101 100 102 96 93 97 99 103 107 112 117 117 114 111 101 89 78 70 60 54 52 47 43 41 38 37 35
Wind_Direction
311 311 317 311 291 281 272 272 276 278 283 285 288 290 291 295 298 299 296 297 299 303 303 303 305 304 303 303 303 304 303 300 298 297 294 291 289 287 287 286 283 282 279
306 306 312 313 301 293 279 276 282 283 291 296 293 293 294 295 299 300 303 300 302 304 304 304 304 303 304 304 303 303 303 301 298 295 294 294 294 290 285 282 284 283 280
305 308 308 306 305 300 299 292 289 292 295 291 294 297 302 300 296 302 305 302 303 305 303 305 306 306 305 304 304 303 301 300 299 296 293 293 293 293 291 286 284 283 281
300 303 308 303 306 304 307 308 309 307 300 303 305 302 299 295 299 301 302 302 306 306 306 308 307 306 305 305 303 301 300 299 298 297 293 288 286 289 293 291 285 280 281
298 303 304 300 303 302 307 306 300 305 304 301 297 296 298 296 301 304 305 306 309 308 308 306 306 305 305 303 302 302 301 298 295 293 293 292 290 288 284 287 288 286 279
290 294 293 292 301 306 303 301 297 302 299 305 303 300 299 302 304 306 307 309 308 308 307 307 307 305 305 304 302 301 299 299 299 297 295 293 291 290 288 285 281 282 283
287 285 290 294 301 301 300 296 302 305 305 306 303 301 301 305 306 307 309 310 310 310 310 309 307 306 304 302 301 301 301 300 297 296 296 294 292 289 286 283 281 279 278
280 284 284 293 299 298 301 297 304 304 304 304 305 305 306 307 310 311 310 310 312 312 310 307 305 303 302 301 301 301 300 298 296 295 293 289 286 285 284 284 284 282 279
283 281 286 289 290 298 298 299 301 301 302 304 306 306 309 312 312 311 312 313 313 312 310 308 306 305 304 303 302 301 297 294 292 290 288 287 285 283 282 281 280 279 277
289 291 288 288 294 294 295 300 300 303 304 304 307 309 311 312 313 315 316 317 315 315 314 310 308 306 305 303 300 296 293 291 291 291 289 286 285 285 284 283 282 280 279
282 289 295 294 294 295 296 299 300 303 304 306 307 310 312 314 315 316 316 316 317 317 316 314 313 310 306 303 301 298 297 297 296 294 294 294 294 293 293 292 289 286 283
279 283 287 293 296 297 298 299 300 300 301 304 308 311 316 318 317 316 319 319 320 321 320 318 315 312 308 306 303 303 302 301 301 302 302 300 300 300 300 296 291 286 283
284 283 287 292 291 295 299 300 299 301 304 307 310 317 320 320 319 321 322 323 323 324 323 321 317 313 311 310 308 308 309 308 306 305 306 307 308 306 301 297 293 290 286
286 288 290 290 296 299 297 299 302 304 307 309 314 319 321 320 322 325 326 326 326 327 325 322 319 316 315 313 312 311 312 310 311 312 313 313 311 306 303 300 297 294 291
282 288 292 298 297 300 305 306 307 308 309 312 316 320 322 321 324 327 329 329 329 327 326 324 321 319 316 314 315 315 315 315 316 317 318 315 311 309 306 303 301 298 294
288 292 296 300 306 308 310 312 312 312 312 315 318 322 323 324 325 330 331 330 329 328 328 327 324 320 318 319 319 318 318 318 321 321 319 315 315 312 309 306 303 300 298
294 300 304 309 312 313 313 312 312 311 313 316 320 322 325 326 327 331 332 330 329 330 330 327 324 321 321 321 320 320 320 323 324 323 319 319 316 314 311 309 307 304 301
299 302 308 312 314 313 311 312 312 313 315 319 321 322 325 326 328 330 332 332 331 331 330 327 325 324 324 322 322 322 324 326 326 323 323 321 318 316 313 311 310 307 304
301 308 312 315 314 312 312 314 315 316 317 321 322 323 325 327 330 331 333 333 333 332 331 327 326 326 324 324 323 324 326 328 327 325 324 322 320 317 316 314 312 308 305
307 311 314 313 313 314 315 318 317 318 320 323 324 324 326 328 331 334 334 334 334 333 331 328 328 327 325 325 324 327 329 329 327 327 326 324 321 319 318 316 312 309 309
308 311 310 311 314 316 317 317 319 321 322 324 324 325 328 330 334 335 336 335 335 333 331 330 329 328 329 327 329 330 332 331 330 328 327 325 323 321 319 316 314 314 315
306 306 308 309 314 314 315 317 319 322 324 325 325 328 330 333 334 336 337 336 334 332 331 331 331 330 330 330 332 333 334 333 332 330 329 327 325 323 320 318 318 318 317
304 305 307 310 312 313 315 318 321 323 325 326 328 331 333 334 334 336 338 335 333 333 333 332 333 332 331 332 334 336 336 335 333 332 331 328 325 324 322 322 320 318 317
306 306 308 310 312 314 317 320 323 324 326 327 331 332 333 335 335 337 337 334 334 334 334 335 335 334 334 334 336 338 337 336 335 334 332 329 327 326 325 323 321 321 320
306 308 309 311 312 314 318 321 323 325 328 330 333 333 332 335 335 337 336 333 334 335 336 336 337 335 335 336 337 339 338 337 337 336 334 331 328 326 326 324 323 324 323
304 308 311 311 314 315 319 321 323 326 329 331 333 332 332 334 335 336 334 334 335 336 339 337 338 336 336 338 339 341 339 339 338 337 334 331 329 329 329 328 328 328 325
Height
10802 10800 10798 10790 10787 10783 10781 10778 10777 10775 10771 10770 10767 10764 10760 10754 10749 10744 10738 10731 10725 10719 10712 10705 10699 10691 10685 10678 10669 10663 10657 10652 10644 10635 10626 10622 10622 10618 10613 10608 10602 10602 10599
10795 10792 10792 10786 10782 10778 10775 10772 10771 10768 10765 10763 10760 10756 10752 10745 10739 10733 10729 10722 10714 10707 10698 10690 10683 10674 10669 10661 10651 10645 10637 10632 10628 10622 10614 10602 10594 10596 10599 10596 10586 10582 10579
10788 10784 10783 10780 10775 10771 10769 10766 10764 10763 10758 10753 10750 10746 10742 10736 10726 10723 10720 10710 10702 10693 10683 10675 10666 10657 10648 10642 10634 10627 10620 10612 10606 10606 10600 10592 10581 10567 10572 10575 10571 10564 10561
10780 10776 10774 10773 10769 10765 10763 10761 10756 10753 10750 10746 10742 10739 10734 10726 10718 10711 10708 10697 10690 10679 10667 10660 10650 10640 10632 10623 10615 10608 10603 10596 10586 10580 10579 10578 10573 10565 10547 10546 10550 10549 10543
10772 10767 10764 10764 10761 10759 10756 10753 10748 10743 10742 10738 10731 10726 10725 10718 10709 10698 10689 10680 10673 10661 10652 10643 10636 10625 10616 10606 10598 10590 10584 10577 10569 10563 10557 10553 10550 10549 10549 10536 10521 10523 10524
10768 10762 10755 10754 10753 10749 10746 10745 10741 10736 10730 10729 10722 10713 10709 10710 10698 10686 10676 10668 10657 10647 10636 10626 10619 10609 10599 10589 10579 10571 10565 10558 10550 10544 10539 10536 10530 10524 10520 10518 10513 10503 10494
10756 10756 10749 10746 10743 10739 10736 10734 10732 10727 10719 10713 10709 10703 10695 10694 10687 10672 10663 10653 10644 10632 10619 10608 10598 10589 10579 10571 10562 10555 10548 10540 10532 10526 10520 10513 10506 10500 10495 10492 10489 10484 10476
10744 10747 10744 10740 10736 10731 10726 10722 10721 10718 10710 10702 10693 10690 10684 10673 10670 10661 10649 10640 10631 10621 10609 10597 10584 10574 10564 10556 10547 10540 10532 10521 10512 10506 10499 10492 10483 10475 10466 10459 10454 10451 10447
10731 10734 10734 10733 10729 10724 10717 10712 10708 10707 10702 10691 10682 10673 10668 10661 10651 10644 10634 10624 10617 10605 10593 10581 10569 10558 10547 10538 10530 10522 10512 10501 10492 10484 10475 10466 10458 10449 10440 10432 10423 10417 10414
10722 10719 10721 10723 10724 10716 10711 10705 10699 10694 10689 10679 10671 10663 10655 10647 10640 10630 10620 10609 10595 10584 10574 10562 10551 10540 10530 10520 10511 10500 10488 10477 10467 10458 10447 10435 10426 10417 10408 10398 10389 10380 10373
10714 10710 10709 10710 10712 10708 10702 10696 10690 10683 10677 10670 10662 10654 10645 10636 10626 10617 10606 10594 10582 10569 10557 10544 10532 10521 10509 10498 10486 10473 10463 10452 10441 10427 10415 10404 10392 10383 10370 10359 10347 10333 10320
10705 10701 10698 10701 10697 10694 10691 10687 10681 10675 10668 10660 10653 10645 10637 10626 10616 10606 10593 10579 10566 10552 10539 10527 10514 10502 10489 10477 10463 10451 10438 10425 10412 10397 10384 10369 10354 10340 10326 10311 10296 10279 10266
10695 10691 10689 10688 10687 10684 10679 10675 10670 10663 10655 10649 10642 10635 10626 10615 10604 10594 10581 10566 10552 10538 10525 10511 10497 10484 10470 10456 10440 10426 10413 10398 10381 10367 10350 10333 10316 10298 10276 10261 10245 10230 10216
10686 10682 10680 10677 10674 10672 10669 10664 10658 10652 10645 10639 10633 10624 10615 10604 10593 10581 10567 10552 10537 10522 10509 10494 10480 10464 10450 10431 10417 10403 10388 10370 10351 10333 10313 10294 10273 10251 10232 10211 10198 10186 10175
10679 10675 10671 10668 10664 10660 10657 10652 10647 10641 10635 10628 10622 10613 10602 10592 10580 10567 10552 10537 10521 10506 10492 10477 10460 10445 10428 10411 10396 10379 10358 10339 10319 10299 10277 10255 10232 10209 10192 10174 10161 10151 10141
10672 10668 10664 10660 10656 10652 10647 10641 10636 10630 10623 10616 10609 10601 10590 10578 10565 10551 10535 10521 10506 10491 10475 10458 10441 10427 10407 10389 10371 10353 10330 10309 10290 10268 10243 10217 10195 10173 10157 10144 10133 10124 10115
10664 10660 10657 10652 10648 10642 10637 10633 10627 10621 10614 10606 10598 10589 10578 10565 10552 10538 10523 10508 10492 10474 10456 10441 10425 10408 10388 10367 10348 10326 10304 10283 10260 10236 10211 10185 10164 10145 10129 10118 10109 10100 10092
10656 10653 10649 10645 10640 10635 10630 10625 10619 10613 10606 10598 10588 10577 10567 10553 10540 10525 10509 10492 10475 10457 10440 10423 10408 10390 10369 10347 10324 10300 10277 10254 10230 10204 10179 10158 10139 10122 10108 10096 10087 10079 10073
10647 10644 10641 10636 10632 10626 10622 10616 10611 10605 10597 10588 10578 10566 10555 10540 10526 10511 10493 10475 10458 10440 10422 10405 10390 10372 10351 10327 10302 10276 10252 10228 10202 10177 10154 10135 10118 10104 10090 10079 10069 10062 10056
10637 10635 10631 10627 10622 10617 10613 10608 10601 10595 10586 10576 10565 10554 10542 10527 10512 10495 10478 10460 10443 10425 10406 10388 10370 10353 10332 10310 10286 10261 10234 10211 10183 10158 10135 10117 10101 10087 10076 10065 10054 10046 10041
10629 10626 10622 10617 10613 10608 10604 10598 10591 10584 10575 10565 10553 10541 10528 10513 10498 10481 10465 10446 10428 10410 10391 10373 10354 10333 10311 10286 10263 10240 10214 10185 10158 10134 10115 10100 10086 10073 10062 10052 10043 10034 10026
10620 10617 10613 10609 10604 10599 10594 10588 10580 10572 10562 10552 10540 10528 10514 10499 10485 10468 10451 10431 10413 10394 10375 10355 10335 10314 10290 10266 10242 10217 10192 10166 10140 10118 10100 10085 10072 10061 10050 10041 10032 10024 10017
10611 10608 10604 10599 10594 10588 10583 10577 10569 10560 10551 10540 10528 10515 10501 10486 10471 10455 10437 10418 10400 10380 10360 10340 10319 10296 10270 10247 10222 10197 10172 10148 10126 10107 10088 10073 10061 10050 10040 10031 10023 10016 10009
10603 10599 10594 10589 10584 10579 10572 10566 10558 10549 10540 10529 10516 10501 10487 10473 10456 10441 10423 10404 10385 10367 10347 10325 10303 10279 10255 10230 10205 10179 10153 10132 10113 10095 10079 10065 10053 10041 10031 10022 10015 10008 10001
10593 10589 10584 10579 10574 10568 10562 10555 10547 10538 10528 10516 10503 10489 10474 10460 10444 10428 10410 10391 10372 10353 10333 10313 10292 10264 10240 10216 10192 10166 10138 10116 10097 10081 10067 10055 10044 10034 10026 10017 10008 10001 9994
10582 10579 10574 10569 10563 10557 10551 10544 10535 10526 10516 10504 10492 10477 10462 10448 10431 10415 10397 10378 10358 10339 10319 10295 10275 10251 10227 10202 10176 10153 10128 10107 10088 10072 10058 10047 10036 10025 10017 10009 10001 9994 9988